ECMWFFLT1_925_spd_000.txt.gz
Wind_Speed
17 15 13 11 9 8 7 5 4 4 4 4 6 6 4 2 2 1 1 1 1 0 1 1 1 3 3 3 3 5 6 7 7 7 8 8 8 10 12 15 17 17 17 14 10 5 2 2 6 10 14 17 21 25 28 30 30 30 29 28 28 29 31
17 16 14 12 10 8 8 7 6 4 4 5 5 4 4 2 1 0 0 1 1 1 1 2 3 4 4 4 4 5 5 6 6 6 7 8 7 9 10 13 15 16 18 19 16 12 6 4 3 4 7 9 11 16 21 26 29 30 30 29 29 30 32
19 17 15 14 12 9 8 8 7 6 5 5 5 4 3 1 2 3 3 4 4 3 3 3 2 3 4 4 5 6 6 6 6 6 6 7 8 10 11 12 13 13 13 12 14 15 10 8 7 6 8 9 7 10 13 16 21 27 30 30 30 31 33
22 20 18 17 14 12 10 9 8 8 6 5 5 5 3 3 3 4 4 4 4 4 4 4 4 5 6 7 8 8 8 7 7 7 7 6 7 9 11 12 14 15 14 13 15 16 11 8 8 6 11 13 11 14 16 16 17 19 22 27 30 32 33
25 23 21 19 17 15 13 11 10 10 8 7 6 5 4 4 3 1 2 3 4 5 5 6 7 8 9 10 11 11 10 10 9 9 9 9 9 9 11 12 13 15 18 19 20 19 15 15 12 7 11 15 11 15 21 23 23 21 21 23 26 29 32
24 24 22 20 18 18 16 14 14 13 11 10 8 7 6 5 3 2 3 4 5 7 8 9 9 10 11 12 13 13 13 12 11 10 10 10 10 11 12 13 14 15 18 20 21 20 19 21 18 11 14 16 11 13 19 21 23 24 25 26 26 27 28
24 24 23 20 20 20 18 16 15 15 14 13 11 9 9 8 6 5 5 6 6 8 10 11 10 10 11 12 13 14 13 13 13 12 12 11 11 11 12 13 14 15 17 18 20 21 20 20 18 15 14 13 12 14 16 19 21 20 23 28 30 30 30
25 25 23 21 21 22 20 17 16 15 15 14 12 11 10 10 8 7 7 7 7 8 10 9 9 9 11 13 13 13 13 13 14 15 14 14 14 13 13 14 14 15 16 17 19 20 20 21 21 20 15 9 8 10 10 15 18 19 24 28 28 30 30
25 25 24 23 23 22 21 19 17 17 16 14 13 13 11 10 9 9 9 8 7 8 8 8 7 8 10 12 14 15 14 14 15 15 15 16 16 16 15 15 16 16 16 16 17 18 20 21 22 23 20 13 9 6 5 8 10 14 24 26 24 28 29
26 25 25 24 23 22 22 20 18 18 18 16 14 14 12 11 10 10 9 8 7 8 7 7 7 8 10 13 14 15 16 16 16 15 15 15 16 17 17 17 17 17 17 16 16 16 17 20 22 23 24 21 16 8 5 7 7 10 19 22 23 25 26
27 26 26 24 22 22 23 21 20 20 20 17 16 14 13 12 11 10 9 8 8 8 7 7 8 10 12 14 15 16 16 17 18 17 16 16 16 17 19 19 19 19 19 18 17 17 17 18 19 21 24 25 24 17 11 9 8 11 16 19 22 23 21
28 27 25 24 22 23 23 22 21 21 20 18 16 15 13 12 11 10 9 8 8 8 8 8 9 11 12 13 14 14 16 17 18 19 18 18 18 18 20 21 21 21 21 21 20 20 19 19 19 19 21 24 27 27 22 13 8 14 20 19 21 22 19
29 27 26 24 24 24 24 23 22 21 19 18 16 15 14 13 11 10 9 8 8 8 9 10 10 11 11 12 12 12 13 14 16 18 19 20 20 21 21 22 23 23 23 24 23 22 22 21 21 21 21 22 24 26 28 21 9 14 27 26 22 23 20
30 28 26 25 25 24 24 23 22 20 18 16 15 14 13 12 10 9 9 9 9 9 10 9 9 10 11 11 11 12 12 12 14 16 18 20 20 21 21 22 24 24 23 24 24 24 24 23 23 23 22 22 23 23 24 23 15 13 25 29 25 25 25
30 28 27 26 25 24 24 23 21 19 17 15 14 13 13 11 9 9 10 10 10 9 8 8 9 10 10 10 10 10 10 12 13 15 17 18 20 20 20 22 24 25 23 23 24 24 24 24 24 25 25 23 24 25 23 23 20 15 19 26 26 26 26
30 29 27 26 26 25 24 22 20 18 16 14 14 13 11 9 9 9 10 9 8 7 7 8 9 9 10 11 11 12 13 14 15 16 17 18 19 19 20 22 23 24 23 23 24 24 24 24 23 24 26 25 24 25 24 23 22 18 18 23 24 25 25
31 30 28 27 26 24 23 21 19 17 15 14 13 11 10 9 9 10 9 8 7 7 7 8 9 10 12 14 15 16 17 17 17 18 20 20 19 19 20 21 22 23 22 23 24 25 24 23 22 22 24 26 25 25 24 24 23 22 21 21 21 22 25
31 31 30 28 26 24 22 20 17 15 14 13 12 10 10 10 10 9 8 7 7 6 7 9 10 12 14 15 16 17 17 18 19 19 19 19 19 19 20 21 22 22 22 22 24 24 24 23 23 23 24 25 25 25 25 24 23 22 23 23 22 21 22
32 31 29 27 25 23 21 18 16 14 13 12 11 10 10 9 9 8 7 7 7 7 8 9 11 13 14 15 15 16 17 18 19 19 19 19 19 20 20 21 22 22 22 22 23 24 24 24 25 25 24 24 25 24 25 24 21 19 20 24 26 24 22
31 30 28 26 24 21 19 17 14 13 12 11 11 10 9 9 8 8 7 7 8 9 9 11 13 15 16 17 17 17 17 18 19 18 19 19 19 20 20 21 22 22 22 22 23 24 25 25 24 24 24 24 24 24 26 26 23 20 19 19 22 25 24
29 28 27 24 22 20 18 15 13 12 12 11 11 10 9 9 8 8 9 10 10 10 11 13 15 17 19 20 20 20 20 20 21 20 20 20 20 20 21 21 22 22 23 23 23 23 23 23 23 24 25 25 25 26 27 27 25 22 20 19 19 21 21
26 25 24 23 21 19 16 14 13 12 12 11 10 10 9 9 9 10 11 11 10 10 12 14 17 19 21 21 21 22 22 23 24 24 23 22 22 23 23 23 23 24 24 25 25 26 27 27 27 28 27 26 26 27 27 27 25 22 19 18 19 20 18
24 24 24 22 20 18 15 13 12 12 12 11 10 10 9 9 11 12 11 11 11 11 13 16 18 20 21 21 22 23 24 25 25 25 26 25 25 25 25 25 25 25 26 27 27 28 29 30 31 31 32 31 29 28 28 27 27 24 21 18 18 19 17
24 24 24 22 20 17 14 12 12 12 11 11 10 9 9 10 11 11 10 9 11 13 15 17 19 20 21 22 23 24 24 25 26 27 27 27 27 27 27 26 26 26 26 27 27 27 28 29 30 30 32 32 32 32 31 30 28 26 23 21 20 20 18
27 26 24 22 19 16 14 13 12 12 12 11 9 9 9 9 8 7 7 9 12 15 16 18 19 21 22 22 23 23 24 25 26 27 28 27 28 28 28 28 27 27 27 27 27 28 29 29 29 30 30 32 32 33 34 34 32 29 26 24 23 23 22
30 28 25 22 18 15 14 12 12 12 11 9 8 8 7 5 4 6 10 13 15 16 18 19 20 21 22 23 23 24 24 25 27 28 28 28 29 29 29 29 29 29 28 28 28 28 29 30 30 30 30 31 33 34 34 35 36 35 33 31 28 28 27
33 29 25 21 17 15 13 12 11 11 9 7 7 6 3 3 6 9 12 14 15 17 19 21 22 23 23 24 25 25 26 27 28 29 30 29 29 30 30 30 30 29 28 28 28 28 28 29 30 31 31 31 32 33 32 33 34 34 35 35 32 31 31
35 30 26 21 17 14 12 12 11 10 8 7 6 4 4 6 8 10 13 15 18 20 23 24 25 25 25 25 26 27 28 29 30 31 30 30 30 30 30 29 29 29 28 28 27 27 28 29 30 32 33 33 33 33 33 33 32 31 32 32 30 29 28
34 30 25 20 17 15 13 12 11 10 8 6 5 5 6 6 8 11 14 16 20 23 25 27 27 27 27 27 27 28 30 30 31 30 30 30 30 30 29 28 28 29 29 28 28 27 28 30 32 33 34 35 36 37 37 36 33 33 34 34 33 33 31
31 27 23 19 17 15 13 12 11 9 7 6 6 7 6 7 10 13 13 15 19 23 25 27 27 27 27 27 28 29 30 30 30 30 30 30 29 29 29 29 29 30 30 30 29 29 29 29 32 34 34 35 35 35 37 36 34 35 36 37 39 39 38
28 24 20 18 15 13 12 10 10 8 6 7 8 7 8 10 11 11 11 14 19 23 25 27 27 27 27 28 28 30 30 30 29 29 30 30 30 30 30 30 30 30 31 31 30 30 30 30 33 34 33 34 34 33 34 32 31 32 33 34 37 39 38
26 23 19 16 14 13 11 9 8 7 7 9 10 10 12 12 9 8 9 15 20 23 26 28 27 27 28 28 28 29 29 29 29 29 29 30 29 29 30 30 31 31 33 32 31 31 31 31 33 35 34 33 33 32 31 30 30 31 30 30 32 33 33
23 21 19 16 13 12 9 7 7 8 10 12 13 13 14 12 7 6 9 16 21 23 26 28 27 27 28 28 28 28 28 28 28 29 30 30 30 30 30 30 30 31 32 32 32 32 32 32 34 36 36 35 33 31 30 30 30 30 29 29 31 31 31
21 18 18 16 13 10 9 8 9 12 13 14 15 15 14 10 6 6 12 17 20 22 25 26 26 26 27 27 27 27 28 28 28 30 32 32 32 32 32 31 32 32 33 33 34 34 34 34 34 36 38 38 37 36 34 33 31 29 29 29 28 30 31
21 18 16 14 12 11 11 10 11 13 14 15 16 14 11 8 7 9 14 17 19 22 24 25 25 26 27 27 27 26 27 28 29 30 32 32 32 33 34 34 35 35 35 36 38 38 38 38 37 38 40 40 39 39 39 38 36 33 31 31 29 30 32
20 17 15 14 13 12 11 10 10 13 15 15 15 13 9 9 10 12 16 17 19 21 24 25 25 26 27 27 26 26 27 29 29 30 32 34 34 35 37 37 38 38 38 39 40 40 40 40 40 40 41 40 40 40 40 40 38 35 33 32 31 31 32
19 18 16 14 12 10 8 9 11 13 15 15 13 12 11 11 13 14 16 18 19 21 24 25 26 28 28 27 26 27 28 29 30 31 34 36 36 37 38 39 40 40 40 41 41 41 41 41 41 41 41 40 40 40 40 39 37 33 31 30 30 29 30

ECMWFFLT1_925_spd_006.txt.gz
Wind_Speed
14 12 11 9 8 7 6 6 6 5 5 5 4 4 4 4 4 5 5 6 8 8 8 8 9 9 9 8 8 9 10 10 10 8 8 8 7 6 6 6 5 3 2 5 5 3 2 3 6 10 10 9 9 9 9 10 12 15 17 19 21 22 23
14 12 12 10 8 7 7 7 7 6 6 5 4 4 4 5 5 6 6 8 10 10 9 9 9 8 9 8 8 9 10 11 11 10 10 10 9 8 7 6 5 5 3 1 1 3 4 4 4 4 8 12 13 13 11 11 13 14 15 16 17 18 19
15 14 13 11 9 7 7 8 8 8 7 6 5 4 4 6 8 9 10 11 11 11 11 10 9 10 10 10 10 9 9 9 10 10 10 10 10 9 8 8 8 7 5 4 4 4 3 5 4 3 6 9 10 15 17 16 17 17 17 17 17 17 17
18 17 16 14 12 10 9 9 9 9 8 7 5 4 4 6 8 9 9 10 11 12 12 12 12 12 13 12 11 10 10 9 9 8 8 8 8 9 9 10 10 8 6 5 6 7 4 4 5 4 5 7 8 14 18 18 19 19 17 18 17 18 18
20 20 19 17 15 13 12 11 10 10 9 7 6 5 4 5 6 7 7 8 9 11 13 12 12 13 13 13 14 13 12 11 10 9 9 9 9 9 10 10 10 9 8 7 7 6 6 6 6 4 6 8 8 10 15 18 18 17 16 16 16 16 17
22 21 20 18 16 15 14 13 12 11 10 9 8 6 5 4 4 4 5 6 8 10 12 12 12 13 14 15 15 15 14 13 12 11 10 10 10 9 9 9 8 8 8 8 7 7 7 7 6 5 7 8 7 10 15 16 15 15 15 15 14 14 14
23 22 21 19 17 16 16 15 13 12 10 9 9 8 6 5 4 2 2 4 6 8 10 10 11 12 13 15 16 15 15 14 14 13 12 11 10 10 9 8 8 9 8 8 8 8 9 8 7 7 7 7 7 9 11 12 12 12 12 13 14 15 15
25 23 22 20 18 17 17 16 14 12 10 9 9 8 7 6 4 2 0 2 4 6 8 9 9 11 12 14 15 15 15 15 15 15 14 14 13 12 12 11 10 9 9 10 9 9 9 8 8 8 8 6 6 6 6 8 10 11 13 17 18 17 15
26 25 24 23 21 18 17 17 16 14 11 10 11 9 8 6 5 4 3 2 2 4 6 8 9 10 11 13 15 14 14 14 15 15 15 15 15 14 14 14 13 12 11 10 10 10 10 9 9 9 9 6 5 5 4 5 7 9 13 16 16 15 13
29 27 26 25 23 21 19 18 17 15 14 13 12 12 10 8 7 6 5 3 1 2 5 6 8 9 10 12 14 14 13 14 13 13 13 14 14 14 15 15 15 14 13 12 11 10 10 10 10 9 8 6 5 4 4 4 5 7 12 13 12 14 15
31 30 28 26 24 22 22 21 19 18 16 15 14 13 12 10 10 9 7 5 3 1 3 4 6 7 9 10 12 12 12 13 13 13 13 13 13 14 14 14 15 15 15 14 13 12 11 10 10 10 9 7 5 4 4 5 6 8 12 12 11 13 17
33 31 29 28 26 25 24 23 22 20 18 16 15 14 13 12 11 11 9 7 4 2 1 2 4 6 7 8 10 10 11 12 13 14 14 14 14 14 14 14 14 14 14 14 14 13 13 12 11 11 10 9 8 6 6 6 6 9 12 12 14 17 19
33 33 32 30 28 27 25 25 23 22 20 18 16 15 13 13 12 11 9 7 5 3 1 1 3 5 6 7 8 9 10 12 13 14 15 16 16 16 16 15 15 14 13 14 14 14 13 13 12 12 12 11 10 8 8 8 7 12 19 19 19 22 19
33 33 33 32 30 28 27 26 25 23 22 20 17 16 14 13 12 11 9 7 6 4 2 1 2 4 5 6 7 9 10 11 12 13 14 15 15 16 16 16 16 16 15 14 14 14 13 13 13 12 12 12 12 10 8 9 8 12 23 23 19 20 20
33 34 34 33 32 31 29 27 26 24 23 22 19 17 16 14 13 12 10 8 6 5 4 3 3 5 6 6 7 9 11 12 13 14 15 15 15 14 14 14 15 17 17 16 15 14 14 13 12 13 12 12 12 11 9 10 10 11 19 24 21 20 21
33 34 35 34 33 32 31 29 26 25 24 23 21 19 17 16 15 13 11 8 7 6 5 5 5 6 6 6 8 9 11 13 14 15 16 16 16 15 14 13 13 14 16 17 17 16 15 14 13 14 14 13 13 14 12 11 12 11 16 23 23 20 19
35 36 36 37 36 34 33 30 27 26 25 24 22 21 19 18 16 14 12 10 8 7 6 6 6 6 6 7 8 10 11 13 14 15 16 16 17 16 16 15 14 14 15 16 17 17 16 15 15 15 16 16 15 16 15 12 13 13 14 20 23 20 18
36 37 39 38 37 36 35 32 29 27 26 25 23 22 21 19 17 15 13 11 9 8 7 7 6 6 6 7 8 9 11 12 14 15 16 17 17 17 16 16 15 15 15 16 16 17 16 16 17 16 16 16 16 16 16 14 14 14 14 18 23 24 21
36 38 39 40 39 38 36 33 30 28 27 26 25 24 22 20 18 16 13 11 9 9 8 7 5 5 5 6 7 9 10 12 13 15 16 17 17 17 17 16 16 16 16 17 18 18 18 18 18 18 17 16 16 16 16 15 14 15 16 18 21 24 23
38 38 39 39 38 36 35 33 31 30 29 28 27 26 23 21 18 15 13 11 10 8 6 4 3 4 5 6 7 9 11 13 14 15 16 16 16 17 17 17 17 17 16 17 19 19 20 20 20 20 20 20 19 19 18 18 18 17 18 18 20 23 24
37 37 35 33 31 31 31 32 31 30 30 30 29 27 25 22 18 15 13 11 10 7 5 4 3 4 5 7 9 11 13 14 15 16 16 17 17 17 18 18 18 19 19 19 20 20 21 21 21 22 23 23 22 22 21 20 20 19 18 18 18 21 24
34 34 33 31 31 32 32 32 31 31 31 31 29 27 24 22 19 17 14 12 10 8 7 5 4 4 6 9 12 14 15 16 17 18 19 19 20 20 20 21 21 21 21 21 22 22 22 22 23 24 25 24 24 24 23 21 20 18 17 17 17 19 20
32 33 33 33 35 36 36 35 34 34 33 31 28 25 23 21 19 18 16 14 11 10 8 5 3 5 8 10 12 13 14 16 17 18 20 21 22 22 23 23 24 24 24 24 23 24 24 24 24 25 25 25 25 26 25 24 21 18 17 18 18 17 17
30 31 32 32 35 37 36 35 34 33 32 29 26 24 22 20 19 17 15 14 12 10 7 4 3 5 7 9 10 11 12 14 16 17 19 20 22 24 24 25 26 26 26 26 26 25 25 25 26 26 26 26 26 27 27 27 25 22 19 18 19 19 18
28 29 31 33 34 35 35 34 32 31 31 29 27 24 22 21 18 16 14 13 11 9 6 3 3 3 7 9 10 11 12 14 15 17 19 21 23 24 25 26 26 26 26 26 26 26 26 26 27 27 28 28 28 29 28 28 29 27 23 21 20 21 21
27 29 31 33 34 34 35 36 36 34 32 30 28 26 23 20 18 16 15 13 10 8 5 4 2 3 7 9 10 11 13 15 16 19 20 22 24 25 26 27 27 26 26 25 25 25 26 27 28 28 29 30 30 30 30 30 30 29 28 27 25 24 23
26 28 29 30 30 31 31 32 33 33 31 30 28 26 24 21 19 17 14 12 10 7 6 5 4 6 8 10 11 13 14 16 18 20 22 24 25 25 26 27 27 28 28 27 26 26 26 27 28 29 30 30 31 31 31 30 29 29 29 30 30 30 28
24 25 27 27 27 27 28 29 30 30 28 27 25 24 23 21 19 17 14 11 9 7 6 6 6 8 9 11 12 14 16 17 19 21 24 25 25 25 26 26 27 28 28 28 27 27 27 28 29 30 31 31 30 30 30 29 29 29 29 30 31 32 32
23 25 26 28 28 29 31 32 31 29 28 27 25 23 22 20 18 16 14 11 8 6 6 7 8 9 10 12 13 15 17 19 20 22 24 26 26 26 26 26 26 27 27 27 27 26 26 26 28 29 30 31 30 30 31 30 30 30 31 31 32 33 33
23 25 26 28 29 32 36 36 33 30 29 28 26 23 21 18 16 15 12 10 8 7 8 9 9 10 12 13 14 15 18 19 20 23 25 26 26 26 25 26 25 25 25 25 26 26 25 26 28 29 29 30 30 31 32 30 29 30 30 31 33 33 33
24 25 26 28 30 33 36 35 33 30 29 27 24 22 19 16 13 11 11 10 9 9 10 11 11 12 13 13 14 16 18 20 22 24 26 26 26 26 26 26 24 24 25 26 26 26 26 27 29 29 29 29 31 32 31 29 30 31 31 32 34 34 35
25 25 27 30 33 34 34 33 31 28 25 23 21 18 14 11 10 12 13 12 11 11 13 12 12 14 14 15 15 16 19 21 23 25 26 26 26 26 26 26 24 24 26 27 27 27 27 27 28 28 27 28 31 32 29 28 29 31 31 32 32 32 34
26 26 28 31 34 34 31 28 26 23 21 19 16 12 10 10 13 15 14 13 13 14 14 14 14 15 16 16 17 18 19 22 24 25 26 26 26 26 26 26 25 26 27 28 28 28 27 27 28 29 28 28 31 31 29 28 29 29 30 31 30 31 33
27 28 31 34 35 32 28 25 22 19 18 17 13 11 13 15 16 16 14 15 15 16 16 15 16 17 18 19 19 20 21 23 25 26 27 27 26 26 26 27 27 27 28 28 29 29 29 29 29 31 31 31 33 33 32 32 32 30 31 32 32 33 33
27 29 34 38 37 32 28 26 24 20 19 18 16 16 18 17 16 15 15 16 17 16 16 17 18 19 19 20 21 21 23 25 26 28 29 28 26 27 28 29 28 28 28 29 30 31 32 32 32 33 34 35 36 37 37 36 34 32 32 32 32 32 31
28 30 31 32 33 32 29 28 26 23 22 22 20 18 16 15 15 15 15 16 16 16 16 18 19 20 20 21 22 23 25 26 27 29 29 28 28 29 30 29 28 28 29 31 33 34 35 35 36 36 37 38 39 39 39 39 37 35 33 32 31 32 31
31 31 26 23 25 28 27 27 26 24 22 19 17 15 14 14 13 13 13 14 14 14 15 17 19 20 21 22 23 24 26 28 30 32 31 31 31 31 30 29 29 31 33 34 35 36 37 37 37 37 38 39 39 40 40 40 38 35 33 31 31 31 31

ECMWFFLT1_925_spd_009.txt.gz
Wind_Speed
11 9 9 9 8 8 7 7 7 8 8 7 7 7 7 7 9 10 10 11 11 11 10 11 11 11 11 11 11 10 9 8 7 7 6 5 5 4 4 3 2 2 2 3 3 3 3 3 3 4 2 2 3 2 1 1 1 3 4 5 6 7 8
12 10 10 11 10 9 9 8 8 8 8 7 7 7 8 10 12 13 13 13 12 12 11 11 11 10 10 10 11 11 11 11 9 8 7 7 6 5 5 4 4 4 2 1 2 2 3 3 4 4 4 6 6 2 2 2 3 4 5 6 7 8 8
13 11 12 12 12 11 11 10 9 9 8 7 7 8 11 13 14 14 15 15 15 14 14 13 12 11 11 11 11 11 11 12 11 11 10 8 7 6 6 5 5 4 3 2 4 5 4 3 4 4 6 7 6 4 4 5 5 6 7 8 8 8 8
16 13 14 14 14 13 12 12 11 10 9 8 8 9 12 13 13 13 15 16 16 16 16 16 15 14 13 13 12 12 11 12 12 11 11 10 9 9 8 7 6 5 4 3 5 6 5 5 5 5 7 8 8 8 7 6 8 9 8 8 7 6 7
19 17 16 16 15 15 14 14 13 12 11 9 9 10 11 11 11 12 13 14 15 16 16 17 17 16 15 15 14 14 13 13 12 11 11 11 10 10 9 8 7 6 5 5 5 6 5 6 7 6 7 8 8 8 8 9 11 9 7 7 6 5 5
21 21 19 18 17 16 15 15 15 14 14 12 11 11 11 10 9 10 11 12 13 14 14 15 16 16 16 16 16 16 15 14 13 13 12 11 11 10 9 7 7 6 5 5 5 6 6 6 7 7 8 9 8 9 10 10 10 9 8 6 4 4 5
22 23 22 21 19 17 16 16 15 15 15 15 14 13 12 11 9 8 9 10 11 11 12 13 14 15 15 16 16 16 15 14 13 13 12 11 11 10 9 7 7 6 5 5 6 6 6 6 6 7 8 9 9 11 11 10 9 8 7 5 4 6 6
24 24 24 23 21 19 17 17 15 14 14 14 14 13 13 11 10 8 8 8 9 9 9 9 11 12 13 14 14 14 14 12 12 11 10 10 10 9 9 8 6 6 5 5 5 5 6 6 6 7 8 7 8 8 9 10 11 11 10 9 8 7 6
25 25 25 24 22 20 18 17 16 14 14 14 15 14 13 12 10 9 8 7 7 8 7 7 8 8 10 12 12 12 11 10 10 9 8 8 8 7 7 6 5 4 5 4 4 4 4 4 5 6 7 7 7 6 6 8 9 9 9 8 7 4 3
26 26 27 25 23 21 19 18 17 16 15 15 15 15 14 13 11 10 9 8 8 7 7 6 6 6 7 9 10 10 9 8 8 8 7 6 6 5 5 5 4 3 4 3 3 3 3 3 3 4 5 7 7 6 6 7 7 8 7 7 8 6 4
27 27 28 26 24 23 21 20 19 18 17 17 16 16 15 14 13 11 10 9 8 7 6 5 5 5 6 7 8 8 8 7 7 7 6 6 5 5 4 5 4 3 3 3 2 2 2 2 2 3 4 5 6 7 8 8 9 10 10 10 10 9 9
28 29 29 28 26 25 24 22 22 21 19 18 18 17 16 15 14 13 12 10 9 8 6 5 4 4 5 6 7 7 7 6 6 6 5 5 5 4 4 4 4 3 3 3 2 2 2 1 2 2 3 4 6 8 9 10 9 9 10 11 12 11 12
29 30 30 30 29 27 26 25 24 23 21 20 20 19 18 17 16 15 14 12 11 9 7 6 4 3 3 4 5 5 6 6 5 5 5 4 4 4 3 3 3 2 3 2 2 2 2 2 2 2 3 4 6 7 9 11 11 12 12 13 15 15 14
32 32 33 33 32 31 29 27 26 25 24 23 22 21 20 19 18 17 16 15 13 11 9 8 6 5 3 3 4 4 5 5 5 5 5 5 5 4 4 3 3 3 3 2 2 2 2 2 2 2 3 4 6 7 8 11 13 15 14 11 12 15 14
34 34 34 35 35 34 32 30 28 27 26 26 25 24 23 21 20 19 18 17 15 13 11 9 8 7 5 4 4 4 4 4 5 5 6 6 6 6 6 5 5 4 4 4 4 4 4 3 3 3 3 4 6 7 8 10 12 15 16 13 12 14 13
37 35 34 35 36 36 35 33 31 29 28 28 27 26 25 23 22 21 21 19 17 14 12 10 9 8 6 6 5 4 4 4 4 4 5 6 7 8 8 7 7 6 6 6 6 6 5 5 4 4 5 5 6 8 8 10 12 15 18 17 14 14 14
38 37 35 35 36 37 36 34 33 31 30 29 29 28 27 24 23 23 22 20 18 16 14 12 10 8 7 6 6 5 4 3 3 3 4 6 7 8 8 9 9 8 8 8 8 7 7 7 6 6 7 6 6 8 8 10 12 14 17 19 17 16 16
36 37 36 35 35 35 35 34 33 33 32 31 30 30 28 26 25 25 23 21 19 17 15 12 10 9 7 6 5 3 2 2 3 4 5 6 7 7 8 9 9 9 9 9 9 9 8 9 9 9 9 9 8 8 8 10 12 13 16 19 19 17 16
33 35 35 34 33 33 33 33 33 33 33 33 32 31 30 29 27 26 24 22 19 17 14 12 11 9 7 5 2 0 2 4 6 7 8 8 8 8 9 9 10 10 10 10 10 10 10 11 11 11 11 11 11 10 10 11 12 13 15 18 19 18 16
31 32 33 32 32 31 31 31 32 33 33 30 29 30 31 30 29 27 24 21 19 17 15 13 11 9 6 4 1 2 5 7 8 9 10 10 10 10 10 10 10 10 11 11 12 12 12 12 12 12 12 12 12 12 12 12 13 13 15 16 18 17 16
29 31 31 30 29 29 30 31 31 32 32 29 27 30 33 32 29 27 24 21 19 16 15 13 11 8 5 2 1 3 6 7 7 8 9 10 10 11 11 10 11 11 11 12 13 14 14 14 14 14 14 14 14 15 14 14 13 14 15 15 16 16 16
25 28 30 29 28 28 29 30 30 31 32 31 31 33 33 30 28 26 23 21 19 17 16 14 11 8 5 3 2 3 5 5 5 7 8 9 10 11 11 11 12 13 13 15 16 17 17 17 17 18 17 15 16 16 17 16 16 15 15 15 15 15 15
19 23 27 28 29 29 29 29 29 30 32 33 33 34 33 30 29 28 25 22 20 18 16 13 10 8 5 3 2 2 2 3 5 6 7 8 10 11 12 12 13 16 17 17 16 16 17 18 19 20 20 19 18 18 18 18 18 18 17 16 15 14 15
13 17 22 25 27 28 28 28 28 30 32 32 33 34 33 32 31 29 25 23 20 18 14 11 9 7 5 3 1 0 2 3 5 6 7 8 9 11 12 13 14 16 17 17 16 17 18 18 18 19 20 21 21 21 21 20 20 19 19 19 17 16 15
11 14 18 22 24 25 26 27 27 30 31 31 32 33 33 33 31 28 25 22 19 16 13 11 9 6 4 2 1 1 2 3 4 5 7 8 10 11 13 14 14 15 17 18 19 17 17 17 17 19 20 21 22 23 24 24 24 22 20 20 19 18 17
12 12 15 18 22 23 25 26 27 29 31 31 33 34 34 33 30 27 24 21 18 16 14 12 9 7 4 2 2 2 2 3 5 6 8 9 10 12 13 14 15 15 16 18 18 16 16 16 17 18 19 20 21 21 23 25 26 26 26 24 23 22 20
14 12 13 16 19 22 23 25 27 28 30 32 35 36 35 32 29 27 24 20 17 16 14 12 10 6 3 2 3 3 3 5 6 7 9 11 12 13 14 15 15 16 16 17 16 16 16 16 17 18 18 18 18 19 20 22 24 25 27 28 27 27 25
14 12 12 15 19 21 22 25 26 28 32 35 37 36 34 32 29 26 22 19 17 16 14 11 8 5 3 3 4 5 5 7 8 9 11 13 13 14 15 16 16 17 17 17 17 18 18 17 18 19 19 20 20 20 20 21 22 23 24 25 26 26 25
14 12 12 16 19 21 23 25 27 31 34 35 36 35 33 31 29 25 21 19 18 16 13 10 7 5 4 4 5 6 7 8 9 10 12 14 15 15 15 16 17 17 18 18 18 20 21 20 20 20 21 22 22 21 21 20 21 22 23 25 26 27 27
13 13 14 17 20 22 24 26 30 33 35 35 35 35 34 31 27 24 22 21 18 15 12 9 7 6 6 6 7 8 8 9 10 12 14 16 16 15 17 20 21 19 19 19 19 21 22 22 22 22 23 24 24 24 23 21 20 21 23 25 27 28 30
13 14 15 18 22 24 25 27 30 33 36 37 37 37 34 30 27 24 22 20 16 11 9 8 7 7 7 7 8 10 10 9 11 13 14 14 15 15 18 23 25 23 21 20 21 23 23 23 23 23 24 25 25 25 23 21 21 21 21 23 24 26 28
14 15 17 20 23 25 26 28 30 32 33 33 32 31 31 29 27 25 21 17 13 9 6 7 8 9 8 8 10 12 11 10 12 13 13 14 15 15 17 20 23 24 23 22 22 22 22 22 23 24 25 26 27 26 23 22 22 22 22 22 22 23 25
15 16 17 21 24 25 26 28 30 32 33 32 30 29 28 26 25 22 17 13 11 9 7 7 9 9 9 10 13 14 13 12 13 13 14 14 16 17 18 18 19 21 22 22 23 23 23 23 24 25 26 26 27 26 24 23 24 24 25 25 25 24 25
15 16 17 21 24 25 26 30 33 34 34 34 32 30 27 23 19 17 14 12 11 10 9 8 8 8 9 12 15 17 16 14 14 14 15 16 17 19 19 19 20 21 22 23 23 24 25 26 27 27 27 28 29 29 27 27 28 28 28 28 27 26 26
15 16 18 22 25 26 27 30 33 34 34 33 31 29 25 20 15 12 12 13 11 10 9 8 8 9 12 14 16 16 16 16 16 16 15 16 18 19 20 22 24 24 23 23 25 27 29 30 30 30 30 31 32 32 32 32 30 29 28 27 26 25 25
15 17 20 22 23 24 25 27 29 31 31 31 29 26 21 16 13 13 14 14 10 9 9 9 10 11 12 12 12 13 14 15 16 16 16 17 19 21 23 24 24 23 24 26 29 31 31 32 31 30 31 32 33 33 33 31 30 29 27 26 26 26 25
14 18 21 22 21 21 23 26 28 28 28 25 22 20 18 16 15 14 12 10 7 6 6 7 8 8 9 10 11 13 15 18 20 20 20 20 21 22 24 24 24 26 28 30 31 32 32 31 30 30 30 31 31 30 29 28 27 27 26 25 25 26 27

ECMWFFLT1_925_spd_015.txt.gz
Wind_Speed
9 9 8 8 7 6 6 5 5 5 4 5 5 5 5 4 4 4 3 3 3 3 3 4 5 6 7 9 9 7 5 5 4 4 5 5 4 2 1 2 3 4 5 5 4 2 2 3 2 4 6 6 8 8 10 14 12 12 19 15 10 10 12
10 10 9 8 8 7 7 5 5 5 5 4 5 5 5 5 5 5 4 4 5 5 5 6 6 7 7 7 7 7 6 6 6 5 3 3 3 2 0 1 3 5 5 3 3 3 2 2 2 2 4 6 8 8 8 12 11 9 12 13 14 12 7
11 10 9 9 8 7 7 6 5 5 4 4 5 5 5 6 5 5 5 5 5 6 6 7 6 6 7 7 7 6 6 6 6 7 6 4 3 3 3 3 2 3 4 2 2 3 2 2 3 3 4 5 5 6 8 10 11 10 11 12 15 14 10
12 11 10 10 9 8 8 7 6 5 5 5 5 5 5 5 5 5 5 5 5 6 6 6 6 6 6 6 6 6 7 7 7 7 6 5 4 3 4 4 4 4 4 4 3 4 4 3 4 4 5 6 6 7 9 10 9 9 11 13 16 15 12
13 12 11 11 10 9 9 8 7 6 6 6 5 5 4 4 4 4 4 5 5 5 5 5 6 6 6 6 6 6 7 7 7 6 6 6 5 4 5 5 4 4 3 4 5 5 5 5 6 5 6 7 7 7 6 6 8 10 12 13 15 15 13
14 13 12 12 11 10 10 9 8 8 7 7 6 6 5 5 4 4 4 4 4 4 5 5 5 6 6 6 7 7 7 7 7 7 6 6 6 5 5 4 4 4 4 4 4 4 4 5 5 5 7 8 7 8 9 9 10 12 12 12 12 12 12
15 14 13 13 12 11 10 10 9 8 8 8 8 7 7 6 5 4 4 4 5 5 5 5 5 5 5 5 6 7 7 6 6 6 6 6 6 5 5 4 4 4 4 4 4 4 4 4 5 5 6 7 7 8 10 10 10 9 8 8 7 8 9
14 14 13 13 13 12 11 11 10 9 9 9 9 9 9 7 6 6 5 5 5 5 5 5 5 5 5 5 5 6 6 6 5 5 5 5 5 5 5 4 3 3 4 4 4 4 4 5 5 5 5 5 6 6 6 7 8 7 7 6 5 6 6
14 14 14 13 14 13 12 11 10 9 9 10 10 10 10 9 7 7 6 6 6 5 5 5 5 5 4 4 5 5 5 4 5 4 4 5 5 5 6 5 4 4 5 5 5 5 5 5 5 5 5 5 5 5 4 5 6 5 6 6 6 5 4
14 14 14 13 14 14 13 12 12 11 11 11 12 12 12 11 10 9 8 7 7 6 6 6 5 5 5 4 4 4 4 4 4 4 3 4 4 4 5 5 5 4 5 5 5 5 5 5 5 5 5 6 6 5 4 4 5 6 7 8 8 7 5
15 14 13 13 13 14 14 14 13 13 12 12 13 14 14 13 12 11 10 9 9 8 7 7 6 6 6 5 5 5 4 4 3 3 3 2 3 3 3 4 4 4 5 5 4 5 5 5 5 5 5 6 6 6 6 5 5 7 9 8 9 9 8
16 15 13 12 12 13 14 14 14 14 14 14 15 15 15 15 14 13 12 11 11 10 9 8 8 7 7 6 6 5 5 5 4 3 3 2 2 1 1 2 2 2 4 5 4 4 4 5 5 5 6 6 6 6 7 7 6 7 9 9 9 10 11
15 15 15 13 13 13 12 13 14 15 16 16 16 17 17 16 16 15 15 13 13 12 11 10 10 9 8 7 7 6 6 5 5 4 3 2 2 1 1 1 1 2 3 5 4 4 5 5 4 5 6 6 6 6 7 8 7 8 11 11 12 12 12
14 15 15 14 14 14 13 13 15 15 16 17 18 19 18 18 18 17 16 15 15 14 13 13 12 11 10 9 8 7 7 6 6 5 4 3 3 2 1 2 2 2 3 4 5 6 6 5 6 7 6 6 6 6 7 8 9 9 11 11 11 12 12
13 14 14 14 13 13 13 14 15 16 16 17 18 19 19 19 19 19 18 17 16 16 15 15 14 13 12 11 10 9 8 7 7 6 5 4 4 3 2 2 2 2 3 4 5 6 7 6 7 8 7 7 7 7 7 9 9 10 11 11 12 13 12
12 13 14 15 14 14 16 16 16 15 16 16 17 19 20 20 20 20 19 19 18 17 17 16 15 14 13 12 12 10 9 9 8 7 6 5 5 4 3 3 3 3 3 4 5 6 7 7 7 8 8 8 9 9 9 9 10 11 12 12 12 12 12
10 10 11 12 12 13 17 19 18 17 16 17 18 18 19 20 20 20 20 20 19 19 18 17 17 15 14 14 13 12 11 10 9 8 7 6 4 4 4 4 3 3 4 5 6 6 6 6 7 8 9 9 10 10 9 9 10 11 12 13 12 12 13
8 8 10 13 14 14 16 18 18 18 18 18 19 19 20 20 21 21 21 20 20 19 19 18 18 17 16 15 14 13 12 11 10 8 7 6 5 4 4 4 4 3 4 5 5 6 6 7 8 9 10 11 11 11 10 10 11 12 13 14 14 14 14
6 7 10 14 16 17 18 19 18 17 17 18 19 20 21 21 22 21 21 20 20 19 19 18 18 17 16 16 15 14 12 11 10 9 8 6 5 5 4 4 4 4 4 5 5 6 6 7 8 9 10 11 12 12 12 12 12 13 14 15 15 15 15
4 5 6 10 13 16 19 20 17 15 15 16 18 21 24 23 23 22 22 21 20 20 19 19 19 18 17 17 16 15 14 12 11 9 8 7 6 6 5 5 5 4 4 4 4 4 5 7 8 9 10 11 12 13 13 13 14 14 14 15 15 15 15
5 6 7 8 11 15 17 16 15 15 17 19 20 23 24 23 22 22 22 22 21 21 20 20 20 20 18 18 17 16 15 13 12 11 9 8 8 7 6 6 5 5 4 4 5 6 7 7 8 9 10 11 12 13 14 14 14 15 15 15 15 15 15
6 7 8 9 11 13 14 13 14 15 20 23 24 23 22 21 21 21 21 21 21 22 21 21 22 22 19 18 18 16 15 13 12 11 10 9 9 8 7 6 6 7 8 8 9 9 9 9 10 10 10 11 12 13 14 15 15 15 15 15 15 15 15
6 7 9 10 11 11 11 11 12 14 18 21 21 20 20 20 20 20 21 22 22 22 21 20 22 23 21 19 17 16 14 13 12 11 10 9 9 8 8 7 7 10 11 11 10 8 8 9 10 11 11 11 12 13 14 15 15 15 16 16 16 15 15
6 8 9 9 9 10 10 10 11 12 14 15 16 17 18 19 19 19 20 21 20 19 20 20 22 24 24 20 17 15 14 13 12 11 10 9 9 8 8 7 7 9 10 9 7 7 10 11 10 10 11 12 13 15 16 16 16 16 16 17 17 16 16
8 8 9 9 9 9 10 10 11 11 12 13 14 15 16 17 17 17 17 18 17 16 18 20 23 27 27 23 18 14 12 12 12 10 10 9 8 7 7 6 6 7 8 9 8 9 12 12 10 10 12 14 15 17 17 17 18 18 17 18 18 18 17
9 9 9 9 9 9 9 10 11 11 11 12 12 13 14 14 16 16 14 16 17 16 16 19 24 28 27 24 21 14 10 11 11 9 9 9 7 7 6 6 7 7 8 10 10 9 9 9 9 10 13 15 17 18 18 17 18 19 20 20 20 20 19
9 9 10 10 10 11 11 11 11 10 11 12 11 12 13 13 15 16 15 17 18 18 18 21 24 28 26 24 21 15 9 9 9 8 8 8 7 7 7 7 8 7 8 8 9 8 7 7 9 10 13 15 17 19 19 19 20 21 23 24 24 23 20
9 9 10 10 11 12 12 12 12 11 11 12 12 12 13 14 15 15 16 17 18 18 20 21 25 27 25 21 19 14 9 8 8 7 7 8 8 8 8 8 8 9 9 9 10 10 9 9 10 11 13 16 17 18 19 19 20 21 23 25 26 25 22
9 10 11 11 12 12 12 13 13 12 12 12 12 11 12 13 14 14 15 15 15 18 21 23 26 26 22 19 17 13 9 8 7 7 7 8 8 8 9 9 9 9 9 10 12 13 13 13 12 13 15 17 17 18 18 19 20 22 24 25 26 27 26
10 10 11 12 13 13 13 13 13 12 13 12 13 12 11 12 14 15 16 14 14 18 22 25 26 24 20 17 14 10 8 8 7 7 8 8 8 8 9 9 10 10 10 12 15 16 16 16 14 14 16 17 17 18 18 18 19 21 23 25 27 28 30
10 11 12 13 14 13 14 14 13 12 13 13 14 13 11 12 12 13 14 15 17 21 26 27 25 21 18 15 12 9 7 7 7 7 7 7 7 8 9 11 12 13 13 15 17 17 17 17 15 14 17 17 18 19 19 18 19 20 21 24 26 27 28
11 12 12 13 14 14 14 14 14 13 13 13 13 12 11 12 10 8 11 15 18 23 28 27 23 18 15 13 11 7 4 4 4 4 5 7 8 8 9 11 14 15 15 16 17 16 17 17 15 14 16 18 20 21 19 19 20 20 21 22 23 24 24
12 12 13 13 13 14 14 14 14 14 12 13 13 11 10 10 8 10 12 15 19 25 28 26 21 17 14 12 10 6 2 1 3 5 5 7 8 8 9 11 12 11 10 13 15 16 16 17 15 15 16 18 20 21 20 20 21 22 23 22 22 23 23
14 13 13 13 13 13 14 14 14 14 13 14 13 8 6 9 12 14 15 17 20 24 25 22 19 17 13 11 9 7 3 2 4 5 6 8 10 10 11 10 9 8 8 10 13 13 15 17 18 19 19 20 23 24 25 25 25 25 25 25 24 24 24
15 14 13 13 13 14 14 14 14 13 12 12 9 6 8 12 16 17 16 18 21 22 20 17 16 15 12 10 8 6 5 5 7 7 8 10 10 11 12 11 10 9 9 10 13 16 19 22 22 22 22 23 25 25 25 25 24 24 24 23 22 23 22
16 15 14 13 13 14 13 14 14 13 10 9 9 9 11 14 17 17 15 15 17 18 15 13 12 11 10 8 7 6 5 7 9 8 8 10 11 12 12 12 12 12 13 16 20 23 24 23 21 19 19 19 20 21 21 22 22 22 22 22 22 23 22
17 15 14 13 13 14 14 15 15 11 8 9 12 13 14 16 17 16 14 13 13 13 12 10 9 8 7 6 5 6 6 6 8 8 8 10 11 11 12 13 15 17 20 23 24 23 21 19 17 17 17 17 19 20 20 21 21 20 21 21 21 22 22

ECMWFFLT1_925_spd_021.txt.gz
Wind_Speed
22 21 20 19 17 16 18 17 15 15 13 13 13 11 10 10 11 15 14 14 14 13 13 14 14 13 12 11 11 12 11 8 7 7 8 8 7 6 5 6 5 4 3 2 2 2 2 1 2 3 4 4 6 8 9 9 8 7 6 5 5 6 6
22 22 20 19 17 17 19 17 15 15 14 13 13 11 10 9 9 14 17 16 14 12 11 12 12 12 13 13 12 12 13 12 9 9 10 9 9 8 6 5 6 6 4 1 1 1 2 2 2 3 3 4 6 8 9 11 9 8 8 7 7 6 6
24 21 21 20 19 19 18 16 15 15 14 13 12 12 11 10 9 11 15 16 14 12 12 13 13 12 12 12 12 11 12 13 12 11 11 11 12 12 10 8 7 7 4 2 3 2 1 2 2 2 4 5 5 5 4 8 8 7 8 8 9 9 8
25 24 23 22 20 19 18 16 16 15 14 12 12 11 11 11 11 11 13 15 14 12 12 14 13 12 12 12 12 11 10 11 11 12 12 11 12 13 13 13 13 11 8 6 6 8 5 2 1 2 5 7 5 7 7 3 7 8 7 7 8 10 11
25 25 24 23 21 20 19 18 17 15 14 13 12 11 11 12 12 12 13 13 12 12 12 12 11 10 11 11 11 11 9 9 9 11 12 12 11 13 14 13 13 11 10 9 8 8 7 6 5 3 6 8 4 7 10 7 5 8 9 10 11 10 9
26 24 23 23 21 20 20 19 17 15 14 13 11 11 12 13 12 10 11 11 11 12 12 10 9 9 9 10 11 11 10 9 9 10 11 11 11 13 13 12 12 11 10 9 7 7 7 8 10 7 7 8 5 6 8 8 8 8 8 9 10 12 12
26 23 22 22 20 19 19 17 15 14 13 13 11 11 12 12 11 8 8 10 10 12 12 10 9 9 8 9 10 10 10 10 9 9 10 10 11 12 11 10 10 9 8 7 6 7 6 8 11 9 8 8 6 7 8 8 9 11 16 19 16 6 6
24 22 20 21 19 18 18 16 15 13 12 11 10 10 11 11 9 8 7 8 9 10 10 10 10 8 6 7 9 10 10 10 10 10 10 10 12 12 10 9 8 8 7 5 4 4 4 5 7 9 9 6 4 6 6 7 8 9 14 19 20 20 13
22 21 19 19 18 17 17 15 15 13 11 11 9 9 10 9 7 7 7 7 7 8 10 10 9 7 5 6 9 10 10 8 8 9 10 10 11 12 10 8 7 8 7 5 6 6 6 5 6 7 9 7 4 3 4 5 6 5 12 16 13 16 20
21 20 20 18 16 16 16 14 14 14 12 11 10 9 10 9 7 6 6 6 7 7 9 9 7 6 5 6 8 8 7 6 6 7 7 8 10 10 10 8 7 8 7 7 8 10 9 8 7 6 7 7 6 3 1 4 4 4 10 15 11 13 17
19 18 19 18 16 15 16 14 13 14 13 12 11 10 10 9 8 6 5 6 6 6 8 8 6 7 6 5 7 6 6 7 6 5 5 5 8 9 9 7 5 7 8 7 7 8 8 7 7 5 4 4 5 5 3 2 3 4 12 16 13 14 17
17 16 16 17 17 16 16 15 13 12 13 12 11 10 9 9 8 7 6 6 5 5 7 8 7 7 8 6 7 7 5 6 5 5 4 3 6 8 8 6 5 6 7 6 6 6 4 4 5 6 4 4 4 3 3 2 1 5 13 17 17 18 19
16 16 14 16 19 17 15 15 14 12 11 11 11 9 8 8 8 7 7 7 7 6 6 8 7 7 8 7 7 7 6 7 6 4 4 3 4 5 4 3 2 3 5 5 6 5 3 3 4 5 4 3 3 2 4 3 2 6 12 14 17 19 20
14 14 13 14 19 18 14 14 13 11 11 11 10 10 8 7 8 8 8 8 8 8 7 8 9 8 8 8 7 7 6 8 8 6 5 6 5 3 3 1 1 0 2 3 4 4 3 4 4 5 4 4 4 4 5 5 4 7 12 14 15 17 17
11 11 11 12 16 17 14 13 10 9 11 10 9 9 9 9 9 9 9 10 10 10 9 9 10 10 9 9 9 9 8 9 9 8 8 8 7 6 5 4 3 2 2 2 2 3 3 3 3 5 5 5 5 5 5 6 6 7 11 14 14 14 14
10 9 9 10 12 13 13 12 11 9 10 9 7 6 8 9 10 10 11 12 12 13 13 12 12 12 11 11 11 11 11 11 10 10 11 9 8 8 7 6 5 4 4 2 1 2 3 2 1 1 1 2 3 4 4 5 6 7 9 12 12 13 15
12 10 8 7 8 10 11 11 12 12 10 9 7 5 6 10 11 12 13 15 15 15 16 15 15 14 13 13 14 13 14 13 12 11 12 11 9 9 9 7 5 5 5 2 1 0 0 1 2 1 1 2 2 4 5 5 6 7 8 11 13 14 15
15 14 13 13 13 13 12 11 12 12 11 12 11 8 7 9 11 13 15 16 16 17 18 18 18 18 17 16 16 16 16 16 14 13 13 12 10 10 9 7 5 6 6 4 3 3 3 3 4 3 3 3 3 5 6 6 6 6 8 11 14 15 15
13 15 14 14 14 15 14 13 13 12 12 14 16 15 14 13 13 15 16 14 13 15 18 19 20 20 20 19 18 18 19 19 16 14 15 13 11 10 10 7 7 7 6 5 5 5 5 5 5 4 3 4 4 5 6 6 7 7 8 10 13 15 16
10 12 12 10 12 14 14 14 14 13 15 18 20 21 20 19 19 19 19 17 15 13 15 19 21 21 20 20 20 20 21 21 19 17 17 15 13 13 11 9 8 9 8 8 8 8 8 7 5 5 5 6 6 7 7 7 7 7 9 11 12 13 15
9 9 7 6 7 9 11 12 11 12 15 19 21 21 21 21 21 22 23 23 20 18 16 17 20 21 19 18 19 22 24 23 21 20 19 18 17 16 14 12 11 11 11 10 10 10 9 7 7 9 9 9 8 8 7 7 8 9 10 12 14 14 15
9 8 7 6 6 6 7 8 10 12 15 17 19 20 20 20 21 23 25 24 22 21 21 20 20 21 21 19 19 22 25 26 24 22 22 20 18 17 14 13 13 12 12 12 11 11 10 9 10 11 10 9 9 8 8 8 9 11 12 13 15 16 16
8 7 7 7 7 8 8 9 10 12 13 14 14 16 18 19 19 21 24 25 23 22 22 23 23 23 23 23 23 22 23 27 27 24 23 21 19 17 16 15 14 13 13 13 12 11 11 11 11 10 10 9 8 6 7 9 10 12 13 14 15 15 15
6 5 3 4 5 7 9 10 11 11 12 12 13 14 17 18 19 19 21 23 22 21 21 22 23 24 24 25 26 24 22 26 27 25 24 24 21 19 18 16 15 13 13 13 13 12 12 12 11 9 8 7 6 6 7 9 11 12 13 15 16 16 15
4 3 2 3 3 4 5 6 8 9 11 12 13 14 16 17 17 17 17 18 18 18 19 19 20 23 23 24 25 24 22 25 27 26 26 25 23 21 18 17 15 14 14 14 13 13 12 13 11 9 8 7 7 7 7 8 10 12 14 17 19 19 19
2 1 1 2 2 1 0 1 3 4 6 7 9 10 11 13 14 14 13 13 13 14 15 16 17 19 20 21 22 22 23 26 29 28 25 24 21 19 17 16 15 15 14 13 12 12 12 12 11 10 9 9 8 7 7 9 10 12 14 17 20 22 22
2 2 3 3 2 1 2 3 5 6 6 6 6 6 7 9 11 12 11 10 10 11 12 14 14 14 15 17 19 22 24 26 27 24 22 20 18 16 15 15 16 14 12 11 10 10 10 11 11 12 12 11 10 9 10 12 14 14 14 16 19 22 22
2 2 1 1 1 1 2 3 5 6 7 7 7 7 8 9 9 11 13 12 10 9 11 13 13 13 14 14 16 20 23 23 22 20 17 16 15 14 13 14 14 11 9 8 9 9 10 11 12 14 13 12 12 12 14 16 17 16 15 15 18 20 20
4 3 2 2 2 2 3 4 4 6 7 8 8 9 10 10 10 9 11 12 11 10 11 13 13 12 12 11 15 21 22 21 19 17 14 13 14 14 13 12 11 9 9 10 10 11 12 13 15 16 14 13 14 14 15 16 16 15 15 15 17 18 18
4 4 4 4 4 3 4 4 5 7 8 9 10 11 11 11 12 10 9 11 11 10 11 13 12 10 10 13 18 20 20 18 16 15 14 13 12 11 10 9 8 9 10 11 12 13 14 15 16 16 15 14 14 14 14 14 13 13 14 15 17 17 18
5 6 6 5 5 5 6 6 7 8 9 11 12 13 13 12 12 12 11 11 10 9 10 12 12 12 13 16 17 16 16 16 15 14 12 9 6 6 7 8 9 11 12 13 13 13 14 15 15 14 13 14 14 14 15 15 16 17 18 19 20 21 23
5 5 6 7 8 9 9 9 8 8 9 11 13 14 15 14 12 12 12 13 11 9 10 12 14 15 16 16 15 14 14 13 12 9 7 6 6 6 6 6 7 10 12 12 12 13 13 12 12 12 12 13 15 17 18 18 20 21 21 21 22 22 22
8 9 11 13 13 13 12 10 9 9 10 11 13 15 15 13 11 11 11 12 11 10 11 14 16 17 17 16 15 15 13 12 11 9 9 8 7 4 2 2 2 4 6 8 9 9 9 9 10 11 13 15 17 19 18 18 18 18 18 19 19 19 18
11 12 13 14 15 14 13 11 10 9 9 11 14 14 10 8 9 10 10 10 11 12 13 15 18 19 17 16 15 14 14 13 13 12 10 8 6 3 2 4 4 4 5 6 6 7 8 10 13 14 16 16 16 15 15 15 15 15 17 19 19 18 17
14 14 13 12 13 13 13 12 11 10 10 12 12 9 7 9 9 10 11 10 12 14 16 17 19 19 18 16 14 13 12 12 10 10 8 6 3 1 3 4 3 4 5 5 7 10 12 14 14 14 13 12 12 13 13 14 16 17 19 20 20 18 18
13 13 12 12 14 15 15 15 13 11 9 10 9 6 9 10 10 11 12 12 13 17 19 19 19 19 18 16 14 12 10 8 6 5 4 2 1 1 3 3 3 4 6 8 12 14 13 12 11 10 10 10 12 13 14 16 17 19 20 20 19 19 19
16 16 17 18 18 18 17 16 14 11 9 9 8 10 11 11 12 12 13 13 15 17 20 20 18 17 15 14 11 9 7 5 3 2 2 2 3 3 3 4 5 7 10 12 13 11 9 8 7 8 9 11 12 12 14 16 17 18 19 19 19 19 19

ECMWFFLT1_925_spd_024.txt.gz
Wind_Speed
22 20 18 17 16 15 13 12 10 9 7 7 7 8 8 8 7 9 11 11 12 12 11 11 10 11 11 11 11 9 6 4 4 4 6 6 5 7 9 8 4 1 1 2 1 1 2 0 2 3 4 5 5 6 8 8 8 9 10 8 7 7 7
22 22 20 19 18 17 16 14 13 12 9 8 7 8 10 12 12 13 13 12 12 12 12 12 11 11 11 10 10 10 9 8 5 5 6 5 4 5 8 8 6 3 2 2 2 2 2 2 1 2 5 6 5 5 5 8 11 11 10 10 10 9 7
24 23 21 21 19 18 17 15 14 13 11 9 8 8 10 12 13 12 11 11 11 12 12 12 12 12 11 10 10 10 9 10 10 9 9 7 6 5 6 7 7 4 2 3 4 3 3 3 2 1 4 6 5 8 10 7 7 10 11 12 12 12 10
27 25 24 24 21 19 18 17 16 14 13 11 10 10 11 12 12 11 11 12 12 12 11 11 11 10 9 9 10 11 11 11 12 11 11 11 12 11 9 7 7 6 5 5 6 6 5 3 2 1 4 5 4 6 12 15 13 7 6 9 12 14 12
27 26 26 26 23 21 19 18 17 15 14 12 10 11 12 13 12 11 11 12 12 12 11 10 10 9 8 8 9 10 10 10 10 9 10 11 11 12 13 11 9 9 8 8 7 8 8 6 4 2 4 5 3 5 11 16 19 20 18 13 6 7 9
25 25 26 26 24 22 21 21 19 17 15 14 13 12 13 14 12 12 12 12 11 11 10 10 9 8 8 8 9 9 10 10 9 9 10 11 11 11 11 10 9 8 8 8 6 7 7 6 7 5 4 4 2 4 9 12 14 17 22 23 19 12 7
24 24 25 25 24 22 21 22 20 19 18 16 15 14 14 14 14 13 13 12 11 10 9 9 9 9 9 10 11 10 10 9 9 10 11 11 11 11 10 9 9 9 8 7 5 5 6 6 8 7 4 3 3 4 8 10 12 14 15 18 21 21 17
24 24 24 24 23 22 21 20 19 19 19 18 17 16 15 15 15 14 14 14 12 10 9 9 8 8 9 11 11 11 11 9 10 11 10 10 10 10 8 7 7 8 7 6 5 6 7 7 9 9 7 4 3 5 6 7 10 14 15 13 14 17 18
25 24 24 23 22 21 20 18 17 18 18 18 18 17 16 14 14 14 14 15 13 11 10 9 7 7 8 9 10 10 11 9 10 11 10 10 9 9 8 6 6 7 8 8 8 7 7 7 7 8 9 8 4 2 4 6 5 9 14 14 11 13 16
26 25 23 23 22 21 19 17 16 17 17 17 18 18 16 13 12 13 14 15 14 12 11 9 7 7 7 7 8 9 9 8 9 11 10 9 8 7 7 7 6 8 9 9 10 9 8 7 6 6 7 8 7 3 2 3 3 3 11 14 11 13 16
25 24 22 21 22 21 20 18 17 17 17 16 16 16 15 13 12 11 12 13 14 13 11 9 7 6 6 7 6 6 6 5 7 8 8 8 7 6 6 7 7 7 8 8 9 8 7 7 7 6 6 6 7 5 3 2 1 2 7 11 12 14 16
24 23 22 21 22 21 21 21 20 19 18 16 16 15 14 13 11 11 10 11 12 12 11 9 8 7 6 6 5 5 5 4 4 6 6 6 6 5 5 6 6 5 5 5 5 5 5 5 6 5 5 5 6 5 3 2 1 1 5 9 11 12 13
24 24 23 22 23 23 22 22 21 21 19 18 16 15 14 13 11 11 10 10 10 10 10 9 8 8 7 6 5 6 6 5 4 3 4 5 6 5 4 4 4 3 4 3 3 3 4 4 5 4 4 5 5 5 6 4 1 4 6 7 8 9 10
24 24 25 25 25 24 24 23 21 21 21 19 17 15 13 12 10 10 9 10 10 9 10 9 8 8 9 8 7 6 6 6 5 4 3 4 6 4 2 1 1 2 3 2 1 2 3 4 5 4 4 5 6 6 7 6 5 7 9 10 10 9 10
25 25 26 28 27 26 26 25 22 21 20 19 18 16 14 12 11 10 9 9 9 9 9 9 9 9 10 10 10 9 8 8 8 7 6 5 5 3 2 2 1 0 3 4 1 1 2 3 3 4 4 5 6 7 8 9 7 7 11 15 15 14 15
22 25 26 28 27 26 26 26 23 22 21 20 20 18 15 14 12 12 11 10 10 10 10 10 10 11 12 12 13 12 11 10 10 11 10 8 7 6 5 4 3 3 2 2 1 1 1 2 3 3 4 5 6 7 8 10 10 8 11 16 17 18 19
17 18 18 22 24 24 26 26 24 23 22 21 21 19 17 16 15 14 14 13 13 13 12 12 13 12 13 13 13 13 13 12 12 12 12 11 10 9 7 6 6 5 3 3 2 1 2 2 3 4 5 6 7 8 8 9 9 9 10 14 17 18 19
20 17 12 14 19 22 23 25 23 22 22 21 21 20 19 18 18 17 17 16 15 15 14 14 15 15 15 15 15 14 14 14 14 14 13 13 13 12 10 8 8 7 5 5 4 4 4 4 5 5 6 8 8 8 9 9 9 10 11 14 17 19 19
19 20 15 12 14 16 17 19 19 19 20 19 19 17 16 16 17 17 18 18 18 18 18 18 18 18 18 18 18 17 16 16 15 15 15 15 15 14 12 10 10 9 8 7 7 6 6 5 6 6 6 8 9 10 10 10 11 12 13 14 16 18 20
15 18 17 14 15 17 16 14 14 15 15 15 14 13 12 12 13 15 16 17 17 17 18 20 21 22 22 21 21 20 19 19 18 17 17 17 16 15 13 12 12 12 10 9 9 8 7 6 5 5 6 8 10 11 10 10 10 10 11 13 15 17 20
14 14 14 15 17 17 15 13 12 13 14 14 14 14 13 14 14 15 16 16 16 15 16 17 20 23 24 24 24 23 22 22 21 20 20 19 18 17 15 14 14 13 12 11 10 9 7 6 5 5 6 8 9 9 9 8 8 9 10 12 14 16 18
12 12 12 13 13 13 11 11 11 13 14 14 14 14 15 16 16 16 18 19 19 19 20 20 19 19 21 22 23 24 24 24 24 23 23 22 20 19 18 16 16 15 14 12 11 9 7 6 5 5 7 8 8 7 7 6 7 9 11 13 14 15 17
8 9 9 8 9 8 8 8 8 9 10 11 12 13 14 15 15 16 18 20 19 19 19 20 19 19 19 19 20 21 23 25 25 25 26 26 24 22 21 20 19 17 15 13 11 9 8 6 6 7 8 9 8 6 5 5 7 8 10 12 13 14 16
7 8 7 6 6 6 6 6 7 8 9 10 11 12 12 13 14 15 16 17 16 16 17 17 18 19 19 19 19 19 21 23 24 25 27 28 27 25 24 23 21 19 17 14 12 9 8 7 7 8 9 10 9 7 6 6 7 8 9 11 12 13 14
8 8 7 6 6 6 6 7 7 7 8 9 9 11 12 13 13 13 14 15 14 14 14 14 14 16 17 18 20 20 21 23 24 24 27 29 29 28 27 25 23 20 18 14 11 9 9 9 8 8 9 10 10 9 8 8 8 9 9 11 12 13 13
8 7 7 6 5 5 4 3 2 2 2 3 5 6 9 10 10 10 11 12 12 12 10 10 11 12 14 15 16 18 20 22 23 23 25 28 30 30 28 26 23 19 16 13 11 10 10 10 9 9 9 10 10 9 9 10 9 9 10 11 13 14 15
6 7 7 7 7 6 5 4 3 1 1 1 2 3 5 6 7 7 8 9 10 10 9 9 9 10 10 11 11 13 15 18 20 22 24 27 30 29 27 24 21 16 13 12 11 11 11 11 10 10 10 10 10 11 11 11 11 10 11 12 13 15 16
5 7 7 6 6 4 3 2 2 1 2 2 3 4 5 6 6 6 7 8 9 9 9 9 9 9 9 9 9 10 13 16 18 20 22 24 25 24 21 18 15 12 12 12 12 11 11 11 10 11 11 12 12 12 11 11 10 11 11 13 14 15 16
5 6 5 4 4 3 4 3 3 4 5 6 6 6 6 7 8 8 7 7 8 10 10 10 10 10 9 9 9 9 11 13 15 17 19 20 20 18 16 13 11 11 12 12 11 10 10 10 10 11 12 13 12 12 11 11 11 12 12 13 14 15 16
7 7 7 5 5 5 5 5 5 5 6 8 8 8 9 9 9 9 9 9 9 10 11 12 12 11 10 9 8 6 7 10 11 13 14 15 14 13 12 11 11 11 11 11 10 9 10 10 11 12 12 12 11 12 12 12 12 13 13 14 15 17 19
7 8 8 7 7 7 7 7 6 6 7 8 9 9 10 11 10 10 10 11 12 12 12 12 11 11 9 8 6 6 8 11 13 13 13 12 11 11 12 12 11 10 10 9 9 10 11 12 11 11 10 9 10 11 12 13 15 16 17 19 20 21 22
5 6 6 7 7 8 8 8 8 8 8 8 9 10 11 12 13 12 11 12 13 13 13 12 11 10 8 7 7 9 12 14 15 14 13 13 13 12 11 10 9 9 9 9 10 11 11 10 9 8 7 8 10 12 13 14 16 17 17 18 18 17 17
6 5 5 6 7 9 10 11 11 10 9 9 9 10 11 13 14 12 11 11 13 14 14 13 11 10 9 9 11 13 14 15 15 15 14 14 13 10 8 7 7 6 7 7 8 7 6 5 5 6 7 9 10 11 12 12 12 13 14 14 15 16 16
9 8 8 9 11 12 13 14 13 11 10 10 9 9 11 13 12 11 10 10 11 12 12 12 12 12 12 12 13 13 13 14 15 15 13 11 10 9 8 7 6 5 5 4 4 2 2 4 6 8 9 9 9 9 9 10 11 11 13 14 16 16 17
10 10 10 10 11 12 12 13 13 12 11 10 9 8 10 10 10 9 8 8 9 10 11 11 11 12 12 12 12 12 12 12 12 13 12 10 8 8 7 6 6 5 3 2 2 4 6 8 8 8 7 6 6 7 8 10 11 12 13 14 15 16 16
10 9 9 10 11 12 12 12 13 14 13 11 9 8 8 8 8 8 7 7 8 10 11 12 12 12 12 12 12 12 12 12 12 11 11 9 7 7 7 6 4 2 0 3 5 6 6 5 4 4 4 5 6 7 8 9 10 11 12 13 14 15 16
10 10 11 12 14 15 16 15 15 16 15 13 11 9 7 8 9 8 7 7 9 11 13 13 13 13 12 12 12 12 12 12 11 10 9 7 6 6 6 4 2 0 2 4 5 5 3 3 2 3 4 5 6 7 7 8 10 11 13 14 15 16 16

ECMWFFLT1_925_spd_030.txt.gz
Wind_Speed
11 10 9 8 8 7 7 8 8 8 7 6 4 3 3 4 4 4 4 6 7 7 6 6 6 6 4 3 3 5 4 3 2 2 3 3 3 3 5 4 2 3 5 4 2 2 2 3 5 8 11 13 11 6 2 4 5 5 3 3 4 5 5
9 9 9 9 9 8 6 7 7 7 6 6 4 2 3 4 4 4 4 5 6 6 6 6 6 6 6 5 4 5 5 5 4 3 3 3 3 2 5 5 4 6 6 7 6 5 4 4 3 2 6 12 17 18 14 8 3 1 0 1 1 1 3
10 10 10 10 9 7 6 6 6 6 6 5 5 4 5 5 4 4 4 4 5 5 5 5 6 6 6 6 7 7 7 7 7 5 4 4 4 4 3 4 7 8 6 7 6 5 7 8 5 2 4 7 11 17 22 21 17 13 9 6 3 3 4
10 10 11 11 9 8 7 7 6 6 6 6 6 6 6 6 4 3 3 4 5 5 5 4 4 5 6 7 8 10 11 11 11 10 9 8 8 10 10 9 10 9 8 8 5 5 8 8 5 3 6 7 7 12 20 25 26 23 19 16 12 10 9
10 9 10 9 9 9 8 8 7 6 6 6 7 7 6 5 4 2 2 4 5 5 4 4 4 6 8 9 9 10 11 11 12 12 13 13 13 14 14 14 14 13 12 11 8 9 10 10 9 5 4 5 5 9 14 20 26 27 25 23 21 19 17
11 10 9 9 9 9 8 7 6 6 6 6 6 6 6 5 3 3 4 5 6 5 5 5 6 8 9 9 9 9 9 10 10 10 13 14 13 14 14 13 13 13 14 12 10 10 10 11 12 7 4 4 5 7 10 13 17 22 25 24 22 21 20
13 11 10 10 10 9 6 5 5 5 5 5 6 6 6 4 3 4 5 7 7 7 7 7 8 8 8 8 8 8 8 9 9 10 12 13 13 12 12 11 12 13 14 13 12 12 11 11 10 6 5 6 7 8 10 13 15 16 18 21 20 19 18
15 12 11 11 10 8 6 4 4 4 3 4 5 6 5 4 3 4 5 6 7 7 7 7 8 8 8 8 8 8 9 9 9 10 11 11 12 12 11 12 13 14 14 13 12 13 12 12 12 8 6 5 6 6 6 11 16 16 13 15 18 18 17
16 14 13 12 11 8 5 3 3 3 2 2 4 5 5 4 4 4 3 3 4 4 4 5 6 7 7 8 8 9 10 9 9 10 10 10 11 12 12 12 13 15 14 13 13 13 12 13 13 12 9 6 5 3 2 5 9 12 13 14 16 18 17
17 15 14 13 12 9 4 2 4 4 3 3 4 6 6 5 4 4 3 2 1 1 1 2 4 5 6 7 7 8 9 8 8 9 9 10 11 12 12 12 13 14 13 12 13 12 12 12 12 13 13 11 8 5 2 2 2 6 11 14 15 16 16
18 16 14 12 12 10 7 4 7 5 4 4 5 6 6 6 5 4 4 3 3 2 1 1 1 3 4 5 6 7 7 7 7 9 8 9 11 11 12 12 12 13 12 11 11 10 10 10 10 11 12 13 12 9 5 3 1 4 9 12 14 15 14
20 17 14 13 14 14 11 8 8 6 5 5 6 6 7 6 6 6 6 6 5 4 3 2 1 0 1 3 4 5 6 5 6 8 8 9 10 10 11 11 10 10 9 8 9 9 8 9 9 10 11 11 13 13 9 6 3 3 7 10 12 12 13
22 19 17 17 17 16 14 11 9 7 6 6 6 7 6 6 6 6 7 8 8 7 6 5 3 2 2 0 2 3 4 3 4 6 7 8 9 8 9 10 9 8 7 7 8 8 8 9 8 9 10 10 11 11 10 10 6 4 6 8 9 11 12
24 21 20 19 18 18 16 13 11 9 8 8 7 7 7 7 6 6 7 9 10 10 9 8 6 5 4 3 1 1 2 2 2 3 5 6 7 6 6 7 8 7 6 6 7 7 7 7 7 7 8 8 10 9 9 11 9 6 5 5 8 11 12
22 20 20 20 19 19 18 14 12 12 12 12 11 10 9 9 8 8 8 9 10 11 11 10 9 8 6 5 4 3 2 2 2 2 2 4 5 4 3 4 5 5 5 5 6 6 6 6 5 6 7 7 9 10 9 9 8 6 5 5 8 12 13
19 19 21 22 21 21 19 16 13 13 15 15 14 13 12 10 10 10 10 10 10 11 12 12 12 11 9 8 6 5 5 4 4 4 3 3 4 3 2 3 3 3 3 4 5 5 5 5 4 5 7 8 8 9 9 9 8 7 7 6 8 13 14
20 20 22 23 23 21 19 17 15 15 17 16 14 14 14 14 13 13 12 11 11 11 13 14 14 14 13 11 9 8 7 7 7 6 5 5 5 4 3 3 3 3 3 3 4 5 4 4 4 5 6 7 8 8 9 9 9 8 8 7 9 12 13
21 21 24 24 23 22 20 18 16 15 14 11 10 12 13 15 16 15 13 12 13 13 14 15 17 17 17 15 12 11 10 9 9 9 9 8 7 7 6 5 4 4 4 3 3 4 3 3 3 4 5 6 7 7 7 8 9 8 8 9 9 10 12
19 20 23 24 23 23 22 18 15 13 11 8 10 12 13 15 16 16 14 14 16 16 16 18 18 20 22 20 15 13 13 11 11 12 12 11 10 10 9 8 7 7 7 6 5 4 3 3 3 2 3 4 5 5 5 6 7 7 8 9 9 9 11
16 16 19 22 23 23 21 18 15 14 12 14 16 16 15 13 12 14 16 18 20 20 18 17 17 18 23 24 19 16 15 14 13 14 14 14 13 13 12 11 11 10 10 9 8 7 6 5 3 2 1 1 3 3 4 5 5 6 7 7 8 10 10
16 15 17 20 22 22 19 16 15 14 13 15 16 15 15 12 10 14 20 22 22 21 19 19 19 19 22 24 23 18 15 15 15 16 17 17 16 15 14 14 14 13 13 12 11 9 8 6 4 3 2 0 1 2 3 4 4 4 5 6 8 9 10
16 15 16 18 19 19 16 15 14 13 12 13 12 13 14 15 16 20 23 22 20 20 20 20 18 16 16 19 19 17 15 15 16 17 18 18 18 18 17 17 16 16 16 15 13 12 9 7 5 4 3 1 2 3 3 3 4 4 5 7 8 10 12
16 16 16 16 16 15 15 14 13 12 11 11 11 12 15 16 18 21 20 19 18 18 19 19 16 14 14 15 15 15 15 15 15 16 17 17 18 19 19 20 19 18 18 18 16 13 11 9 7 6 3 1 2 3 4 4 4 4 5 7 8 10 12
14 15 15 15 15 14 14 13 11 10 10 9 9 10 12 13 15 17 18 18 17 17 17 17 17 15 13 12 12 12 12 12 12 13 14 15 16 17 18 20 20 20 21 20 17 14 13 12 10 7 5 2 1 2 2 3 3 4 5 6 7 8 10
12 14 14 13 12 11 11 11 10 9 7 7 7 8 9 10 11 13 15 16 14 13 13 13 12 10 7 7 7 8 9 10 10 12 13 14 15 16 17 18 19 20 21 21 18 16 15 13 11 8 5 2 2 2 2 2 3 4 6 6 7 7 8
9 10 11 10 9 7 7 7 6 6 5 5 7 8 8 8 7 9 11 11 9 8 7 7 6 4 3 3 3 4 5 7 8 10 11 13 15 17 17 17 18 19 20 19 18 17 17 15 13 9 6 4 4 3 3 3 4 5 7 7 7 7 8
6 7 7 8 7 6 5 5 5 6 6 7 7 6 5 5 4 5 5 5 5 3 3 3 2 2 2 2 1 2 3 5 7 8 10 11 13 15 15 16 16 17 17 17 17 18 18 17 13 9 7 6 5 4 4 4 5 6 7 7 7 7 8
5 6 7 7 8 7 7 8 9 10 10 10 9 8 7 6 5 4 2 0 1 2 2 3 3 3 3 3 2 3 4 5 7 9 10 10 11 12 13 13 14 15 15 16 17 19 19 16 12 9 8 7 7 6 6 6 6 7 7 7 7 7 8
3 5 6 6 7 9 11 12 13 13 11 10 8 7 6 5 4 3 2 2 2 2 3 4 4 5 5 4 4 4 4 5 6 8 8 8 8 9 10 10 10 12 13 14 17 19 16 13 10 9 9 9 8 7 6 5 5 5 5 6 7 8 9
4 5 6 7 9 10 11 11 11 10 10 9 7 5 4 3 3 3 3 3 3 3 4 4 5 6 6 6 5 5 4 4 4 6 6 6 5 5 5 5 6 8 11 14 18 18 13 11 10 9 9 8 7 5 4 4 5 5 6 7 9 10 11
7 8 9 9 9 9 9 9 9 9 8 7 6 5 4 5 4 4 5 7 7 6 5 4 4 5 6 7 6 5 5 4 2 3 4 4 4 3 3 2 3 6 10 14 17 15 12 10 9 8 8 7 5 4 5 5 6 6 7 9 10 11 12
4 7 9 11 11 10 9 9 9 9 8 6 4 5 5 3 2 4 7 9 10 9 7 5 4 4 5 6 6 5 5 4 2 1 1 1 1 1 1 2 3 5 8 11 12 11 10 8 7 7 7 6 5 5 6 6 7 8 9 10 11 11 12
4 3 5 7 9 9 9 9 8 8 6 5 4 4 4 1 1 3 6 8 10 10 7 5 4 4 4 5 5 5 5 5 3 4 5 5 5 6 7 7 7 7 7 7 7 7 7 6 6 5 5 4 4 4 5 7 8 10 11 11 12 12 13
14 12 10 10 9 8 8 8 8 7 7 7 6 6 5 3 3 2 4 6 8 8 7 5 4 3 2 4 5 5 5 5 5 6 7 8 8 8 9 9 8 7 6 5 5 4 3 2 2 3 3 3 4 5 6 8 9 10 10 11 12 12 13
17 16 15 15 13 12 12 11 11 10 9 9 8 8 7 5 5 4 3 3 4 6 6 5 4 2 2 3 4 5 6 6 6 6 7 9 9 9 9 8 7 6 4 3 2 1 1 2 3 3 4 4 5 6 7 8 9 9 10 12 13 15 16
18 17 17 16 16 16 16 15 13 12 11 10 10 9 8 7 6 6 4 3 2 2 4 4 3 2 2 3 4 5 6 7 7 7 7 9 9 9 8 7 6 4 3 1 0 2 2 3 3 3 3 4 4 5 6 8 9 11 12 14 16 18 19
21 21 20 19 19 19 19 18 16 14 13 12 12 11 10 9 8 7 7 6 5 3 1 2 3 3 3 4 5 6 7 8 8 8 8 9 10 9 8 7 5 3 1 0 1 2 2 2 2 2 2 3 4 6 7 9 10 12 14 15 17 18 19

ECMWFFLT1_925_spd_033.txt.gz
Wind_Speed
11 12 11 11 11 11 11 11 9 8 7 6 5 5 5 5 5 5 5 5 5 6 7 6 6 6 4 3 3 3 3 3 4 4 3 4 4 5 5 3 1 2 3 3 2 2 3 4 5 8 11 13 12 9 5 2 0 0 2 3 3 3 3
11 12 12 12 12 12 11 10 9 8 7 6 5 5 5 6 6 6 5 4 4 5 6 6 6 6 5 4 4 4 4 4 4 4 4 3 3 5 6 4 4 6 6 5 4 4 4 4 4 4 6 11 15 16 14 11 7 6 4 3 5 6 5
13 13 14 13 12 11 10 9 8 7 7 6 6 6 6 6 5 4 3 2 2 3 4 5 5 6 6 7 7 6 6 5 4 4 5 5 4 4 6 7 6 7 5 4 4 5 4 4 5 6 6 8 11 13 15 16 14 13 12 10 10 10 10
13 14 15 15 13 11 10 10 8 8 7 7 7 7 6 5 4 3 2 2 2 2 3 3 4 5 8 10 11 10 9 8 7 7 7 7 7 7 7 7 6 5 5 5 5 5 5 6 7 7 8 10 11 11 13 15 16 16 16 16 16 16 16
11 12 14 15 14 12 12 11 10 9 8 8 8 7 6 5 4 4 3 3 3 3 2 3 5 7 8 10 11 11 10 10 10 11 11 12 12 12 10 9 8 7 7 7 7 6 7 9 9 9 9 10 11 11 11 13 16 16 16 16 17 17 18
10 10 12 13 13 12 12 12 11 10 9 8 8 7 6 5 5 5 5 4 4 3 3 4 6 7 7 8 8 8 8 9 10 11 12 13 13 13 13 12 10 9 8 8 7 7 7 10 11 10 9 8 9 9 8 9 12 14 15 15 14 15 16
11 11 11 12 13 12 12 12 12 11 9 8 7 6 6 5 5 6 6 5 5 5 5 5 5 5 6 6 6 7 8 9 9 10 11 11 10 11 11 11 11 10 10 9 7 6 6 8 9 10 10 8 8 8 7 8 9 10 12 13 13 14 14
12 12 12 12 12 12 12 12 11 11 9 8 6 5 5 5 5 6 7 7 7 7 6 5 4 4 4 4 5 6 8 8 8 9 9 10 10 10 10 12 12 11 11 10 8 7 5 5 7 11 12 9 7 6 7 8 9 9 9 10 13 14 13
13 12 13 13 12 11 11 11 11 10 8 7 6 5 5 4 4 6 7 7 8 9 8 7 6 4 3 4 5 6 7 8 8 8 9 10 10 11 11 12 12 11 11 10 10 10 9 8 8 10 10 8 7 6 5 6 7 8 8 8 10 13 12
14 13 13 14 13 12 11 10 10 10 9 7 6 5 5 4 4 5 5 6 7 8 9 9 8 6 5 5 6 6 7 7 7 8 9 10 11 11 12 12 12 12 11 11 10 11 12 11 9 8 7 7 6 5 5 4 4 6 7 7 8 10 11
15 13 12 13 13 13 13 12 11 10 9 7 5 5 4 4 4 4 3 4 4 6 7 8 8 7 7 6 6 6 6 6 7 8 8 9 10 10 11 11 11 11 10 10 10 10 11 12 12 9 7 5 4 3 5 5 4 4 6 7 8 8 9
16 15 12 13 14 15 15 14 12 11 9 8 6 5 4 4 4 3 2 2 3 4 5 6 7 7 7 6 6 6 5 5 6 7 8 8 8 8 8 9 9 9 9 8 9 9 10 11 12 11 10 8 6 5 5 6 5 4 4 6 7 7 8
17 16 14 14 15 16 15 12 11 11 10 9 7 6 5 5 4 3 3 2 2 3 3 4 5 5 5 5 5 4 4 3 4 5 7 7 7 6 6 6 7 7 7 8 9 9 10 10 10 10 10 11 10 9 6 6 7 6 5 5 5 6 8
19 18 16 16 15 15 14 11 10 10 10 9 8 8 6 6 5 4 3 2 2 2 1 2 2 3 3 4 3 3 3 2 2 2 3 5 5 5 5 5 5 5 5 6 8 8 8 8 9 9 9 9 10 9 7 7 9 8 6 5 5 6 8
19 19 19 17 15 14 14 13 11 10 10 9 8 8 7 6 5 4 3 1 1 1 1 1 1 0 1 2 3 3 3 2 1 1 1 3 3 3 3 3 4 4 3 4 5 6 6 6 7 8 9 9 9 10 8 7 8 8 7 5 5 5 8
18 19 19 18 15 15 15 15 12 11 11 10 8 8 6 5 4 4 3 2 1 1 2 2 2 2 2 3 3 4 4 4 5 5 4 4 4 3 2 2 2 3 3 3 4 4 4 5 6 7 9 10 10 10 10 8 7 7 7 6 4 4 5
16 17 17 16 15 15 16 15 13 12 12 11 10 9 7 5 5 5 5 4 3 3 2 3 3 3 4 4 4 5 6 7 8 8 8 7 6 5 4 4 4 3 3 3 4 4 4 4 5 6 8 9 10 10 10 9 7 7 7 6 5 4 4
14 14 14 14 14 15 17 16 14 13 13 12 13 11 9 7 5 6 7 7 5 5 4 4 5 5 5 6 6 8 9 10 9 10 11 12 11 9 7 7 6 5 5 5 5 5 4 4 5 5 7 7 8 9 9 9 8 7 6 6 5 5 5
14 14 13 13 12 15 17 16 15 15 14 13 13 13 12 10 8 9 10 9 8 8 7 6 7 8 8 8 8 9 11 12 10 9 12 15 16 15 12 9 9 8 8 7 6 6 6 5 4 4 5 6 7 8 8 8 8 7 7 6 5 4 4
13 13 13 13 14 16 17 18 18 17 15 13 13 14 14 13 13 13 12 11 11 11 10 10 11 10 10 10 10 11 13 14 13 13 14 15 17 18 16 12 10 10 10 10 8 7 7 6 5 5 5 5 6 7 8 8 7 7 6 5 4 3 3
10 10 11 12 14 16 18 19 20 18 16 14 13 15 17 16 14 13 11 10 11 11 11 12 14 12 11 11 11 12 13 13 14 15 16 16 18 19 18 15 13 11 10 11 11 10 8 7 6 6 5 5 5 5 6 7 6 5 4 3 3 2 2
10 10 10 11 13 16 18 19 20 19 16 14 13 14 16 16 14 12 11 11 13 14 14 14 13 12 11 10 10 10 10 11 13 13 14 16 17 17 17 16 15 13 11 12 14 13 12 10 8 7 5 4 4 5 5 5 4 3 2 2 2 2 1
10 11 11 12 12 15 17 18 18 17 16 13 12 13 14 14 13 13 13 15 17 18 16 13 12 11 11 10 10 10 10 11 11 11 13 14 14 13 13 13 14 14 14 15 15 16 15 13 10 8 6 5 6 5 5 4 3 2 1 1 2 2 3
8 9 11 11 12 13 14 15 15 15 15 13 13 14 15 14 13 13 14 14 14 14 13 12 11 11 11 10 10 10 10 9 9 10 11 12 12 11 10 10 10 11 13 15 16 16 16 14 12 10 8 8 7 5 4 3 2 1 1 1 1 2 3
7 8 10 10 11 11 12 13 14 14 14 14 15 16 16 14 12 11 12 12 12 12 11 11 11 10 9 8 7 7 7 8 8 9 10 10 11 11 10 10 10 9 10 12 13 12 14 15 13 11 11 10 8 5 4 1 1 2 2 2 2 2 3
5 5 8 10 10 10 10 11 13 15 15 14 15 15 13 11 10 9 10 10 10 9 9 8 8 8 7 6 5 4 4 4 5 6 8 9 10 10 10 9 9 10 10 10 10 9 13 17 15 13 13 11 8 5 4 3 2 3 4 4 3 3 3
4 3 4 7 8 9 8 9 12 13 13 12 12 11 10 9 9 9 8 8 8 7 7 7 8 9 8 7 6 4 2 2 3 5 7 8 9 10 9 8 7 8 9 9 8 8 12 17 17 15 13 10 7 6 5 4 4 5 5 5 4 4 5
3 3 3 4 6 7 7 7 9 10 8 9 9 9 8 8 8 8 7 7 7 7 8 9 9 9 9 9 7 6 4 2 2 4 6 7 8 9 9 9 8 7 7 7 6 6 12 18 18 16 13 9 7 6 5 5 6 6 6 6 6 6 7
2 2 2 2 4 7 7 7 7 8 9 9 9 10 9 9 8 8 7 6 6 6 6 7 9 9 10 10 9 8 6 4 3 2 3 4 5 6 6 6 6 5 5 5 4 6 12 17 18 15 11 9 8 7 6 6 6 6 6 6 7 7 8
0 1 1 2 4 6 8 9 10 11 11 10 9 8 8 8 8 8 7 6 5 4 4 6 7 8 10 10 10 9 7 6 4 2 1 2 3 4 3 2 2 2 2 3 3 7 13 16 16 13 10 8 7 6 5 6 6 6 6 7 8 8 8
3 5 6 6 7 9 11 12 12 12 11 10 10 9 9 10 9 8 7 6 5 4 4 5 6 7 9 9 9 9 8 6 5 3 2 2 3 4 4 4 3 2 1 0 3 8 13 14 12 9 8 8 7 6 6 6 6 6 6 7 7 7 8
3 6 9 10 11 12 13 14 13 12 12 12 11 11 11 10 8 7 7 6 6 5 4 4 5 6 7 8 9 9 8 7 6 5 5 5 5 5 4 4 4 4 4 3 6 10 11 9 7 6 5 6 6 7 6 5 4 4 5 5 5 6 7
8 7 7 9 11 12 13 14 14 14 14 13 12 12 11 9 7 6 5 5 5 5 5 3 2 3 5 6 7 8 8 8 7 7 8 7 8 8 7 7 7 6 6 7 8 9 8 6 5 4 3 4 5 5 5 4 4 4 4 4 6 7 7
15 14 11 10 10 11 12 13 14 15 16 15 13 13 12 10 8 6 5 4 4 4 5 4 2 0 2 4 5 6 7 7 7 8 9 9 9 10 10 10 10 8 8 8 8 6 5 4 3 3 3 4 4 4 3 3 4 5 5 5 7 7 8
15 16 16 15 15 14 13 12 13 15 16 15 15 14 13 12 9 7 5 3 2 2 2 2 2 0 1 3 4 6 6 6 6 7 9 10 11 11 11 11 10 9 7 6 6 4 3 2 2 2 3 3 3 3 3 2 3 4 5 6 7 8 9
14 14 16 17 19 20 20 18 17 17 17 16 16 15 14 13 11 8 6 4 3 2 1 2 3 2 3 3 4 6 7 6 6 7 9 11 12 12 12 11 10 8 6 5 3 2 1 1 1 1 1 1 2 3 3 3 4 5 6 7 8 9 9
15 14 15 16 19 21 23 24 24 24 23 21 19 17 16 14 12 10 9 7 7 7 6 5 5 5 4 4 5 7 8 8 8 9 10 12 13 13 13 12 10 8 6 4 3 2 2 1 1 1 1 2 4 5 4 4 5 7 7 8 8 9 10

ECMWFFLT1_925_spd_036.txt.gz
Wind_Speed
12 13 11 10 10 9 9 9 8 8 7 6 6 6 6 6 7 7 7 7 6 6 6 5 5 4 3 3 2 1 0 1 2 3 3 4 4 4 5 5 4 3 3 4 2 3 3 2 5 5 6 8 8 8 6 5 4 4 5 6 6 6 5
13 14 13 12 11 10 9 8 8 8 8 7 7 7 7 7 7 7 7 7 7 6 6 6 5 5 4 3 3 3 2 2 1 0 1 2 3 3 5 5 4 3 4 4 4 5 5 3 4 5 6 8 10 11 8 7 7 6 7 9 9 8 7
14 14 13 12 11 10 9 9 8 8 8 8 8 7 8 7 7 6 6 6 7 7 6 6 6 6 5 5 5 4 3 2 2 2 2 1 0 1 3 4 4 3 3 3 3 4 3 2 2 5 5 6 8 10 9 9 8 8 8 10 10 9 8
14 14 14 13 11 10 10 9 8 8 8 8 8 8 7 7 7 7 7 7 8 7 7 7 7 7 7 7 7 6 5 4 4 4 3 3 2 2 3 3 3 2 2 2 3 3 2 1 3 5 7 8 9 9 9 9 9 9 9 10 10 10 10
14 13 14 13 12 11 10 10 9 9 9 9 8 8 7 8 8 8 8 8 8 8 8 8 8 8 7 7 7 7 7 6 6 5 5 5 4 4 4 2 1 1 1 1 3 2 2 3 4 4 7 8 9 9 9 9 9 9 10 10 10 11 11
12 12 13 13 12 12 11 11 10 10 10 9 8 8 7 8 8 9 9 9 9 9 8 8 8 7 7 7 7 7 8 8 7 7 7 7 6 5 5 4 4 3 3 3 2 1 2 4 4 4 7 8 7 8 8 8 9 10 10 9 9 10 10
11 11 12 12 12 12 11 11 11 10 10 9 9 8 8 8 9 10 10 10 10 9 8 8 8 7 7 7 8 8 8 8 8 7 7 7 6 6 5 5 5 5 5 5 4 2 2 3 4 4 5 6 6 7 7 7 7 8 9 9 9 9 10
11 10 11 12 12 12 12 12 11 11 11 10 9 8 8 9 10 10 10 11 10 10 9 7 7 7 7 7 8 8 8 7 7 7 7 7 7 7 6 6 6 6 6 5 4 3 2 1 3 4 4 4 4 4 5 6 6 7 7 8 9 9 9
10 10 10 12 13 13 14 13 12 12 12 12 11 10 9 9 10 11 11 11 10 10 9 8 7 7 7 7 7 7 7 7 7 7 7 7 7 7 6 6 6 6 6 6 5 5 4 2 2 4 4 3 2 3 4 4 5 6 5 6 8 8 8
11 11 12 12 13 13 14 13 13 14 14 14 12 11 10 9 10 10 10 10 10 10 9 9 8 8 7 8 7 7 7 7 7 7 7 7 7 6 6 6 6 7 7 6 6 6 5 4 2 2 2 2 2 1 3 3 3 5 5 5 6 7 7
11 12 13 14 13 12 13 13 13 13 15 16 14 12 11 10 10 9 10 10 9 9 9 9 9 8 8 8 7 7 7 6 7 7 6 6 6 6 6 6 6 6 6 6 6 6 6 5 3 1 1 2 2 2 1 3 3 4 5 5 6 6 6
12 13 14 15 13 11 12 15 13 11 13 16 15 13 12 11 10 9 9 9 9 9 9 8 8 8 7 7 7 6 6 6 6 6 6 6 6 6 6 6 6 6 6 5 6 6 5 5 4 2 1 0 1 3 1 2 3 4 4 5 6 6 6
12 13 14 14 13 10 11 14 12 10 11 13 14 14 13 11 11 10 9 9 9 9 8 8 8 7 7 6 6 6 5 5 5 5 5 5 5 4 4 5 5 4 4 4 5 5 5 5 5 4 4 3 3 2 1 2 5 5 5 4 5 5 5
11 12 14 14 12 11 11 11 10 9 9 11 13 14 14 12 11 10 10 10 9 9 8 8 7 7 7 7 6 6 5 4 4 4 4 4 3 3 3 4 4 4 3 3 3 3 4 4 4 4 4 4 4 3 2 3 6 7 5 4 4 4 3
10 11 13 14 13 12 11 11 10 9 9 10 12 13 14 13 12 11 11 10 9 9 8 8 7 6 7 7 6 6 5 4 4 4 3 2 2 2 2 2 3 3 2 2 2 2 3 3 3 4 4 4 5 4 3 3 5 6 6 5 4 4 3
9 10 12 13 13 13 13 12 11 10 9 10 11 12 13 14 13 12 12 11 10 9 8 8 7 7 6 6 6 5 5 4 4 4 3 2 2 2 1 1 2 2 2 2 1 2 2 2 2 4 5 5 5 5 4 3 4 5 6 5 4 4 3
9 10 11 13 13 13 13 13 12 11 10 9 10 11 13 14 14 13 12 12 12 10 9 8 7 7 6 5 5 5 5 4 3 3 2 2 1 1 1 1 1 1 1 1 1 1 2 2 2 4 4 4 5 5 5 4 3 4 5 5 3 2 2
10 10 10 11 13 13 12 12 13 12 11 10 11 11 12 13 13 13 13 13 13 12 11 10 8 7 6 5 5 5 5 4 3 3 3 2 2 2 2 2 2 1 1 1 2 1 1 1 1 2 2 3 4 4 4 3 3 3 3 4 3 2 1
10 10 9 10 12 13 12 12 13 12 12 12 12 12 12 13 13 13 13 13 13 13 12 11 10 8 7 6 6 5 6 5 5 5 5 5 5 4 4 4 4 3 3 3 2 1 1 1 0 0 0 1 2 3 3 3 3 2 2 3 3 2 1
11 11 10 9 10 12 12 13 13 13 13 14 14 13 13 13 13 12 12 12 12 12 12 12 11 9 8 7 6 6 6 7 7 7 7 6 6 7 8 7 7 7 7 6 4 3 2 2 0 1 1 1 1 2 2 2 2 2 2 2 1 1 1
10 10 11 11 11 11 12 13 14 14 14 15 15 14 13 13 12 12 11 11 11 11 11 10 10 9 8 8 7 6 7 7 7 7 8 7 8 9 10 10 10 11 11 10 9 8 8 8 7 5 4 2 2 2 2 2 2 2 2 2 1 1 1
7 8 9 11 11 12 13 14 14 14 14 14 13 13 13 12 12 12 11 10 10 11 10 10 9 9 8 8 8 7 7 7 7 7 7 8 8 9 11 11 12 14 14 13 12 12 13 12 10 9 8 7 5 5 4 3 3 3 3 3 3 2 3
5 6 7 8 9 10 11 12 12 13 13 12 12 11 11 11 11 11 11 10 10 10 9 10 11 11 9 9 9 8 7 7 7 7 7 8 8 9 10 10 12 14 15 15 15 14 14 12 10 10 9 8 7 5 4 4 5 4 4 4 3 3 4
3 4 5 6 7 8 9 10 10 11 11 11 11 10 10 10 9 9 9 9 8 8 8 10 13 14 12 12 10 8 7 7 6 6 7 7 7 8 8 8 8 10 12 14 15 15 14 13 12 12 12 10 9 9 7 6 4 2 2 3 2 2 4
2 3 4 5 6 7 7 8 8 8 9 10 10 8 7 7 6 6 7 8 8 8 8 10 12 12 12 12 11 10 7 6 6 5 6 6 6 6 6 7 7 7 8 10 12 12 14 15 15 15 14 12 12 11 10 9 6 2 1 1 1 3 3
1 1 3 4 5 5 6 6 6 6 7 8 8 7 6 5 6 8 9 10 10 9 10 12 12 11 12 12 11 10 7 5 5 4 4 4 5 5 5 6 7 6 7 7 8 8 11 14 17 18 16 14 13 12 11 10 7 5 3 2 1 3 2
1 0 1 3 5 6 6 6 6 7 8 9 9 9 8 7 9 11 10 10 9 8 11 12 11 11 11 11 11 10 7 5 4 3 2 2 3 3 4 5 5 5 6 6 7 8 10 13 18 20 16 14 14 12 10 8 7 6 4 2 2 3 2
1 0 1 2 4 5 6 6 7 8 9 10 9 8 7 8 9 10 9 9 8 8 11 11 11 12 12 12 12 10 7 4 3 3 2 1 1 2 2 3 4 5 5 5 7 9 10 12 17 18 15 13 13 13 11 8 6 5 4 2 2 2 2
1 0 1 2 4 5 5 6 7 8 8 8 8 9 8 8 9 9 8 9 10 10 10 11 12 13 13 13 12 9 6 5 4 4 3 2 1 1 0 1 2 3 3 5 8 9 11 12 15 16 14 12 12 11 10 8 5 5 5 5 6 6 7
3 3 3 4 5 5 6 7 7 8 9 9 9 10 10 9 10 11 10 10 10 8 8 11 13 13 13 13 12 8 6 6 5 4 4 3 3 2 2 2 2 1 2 5 7 9 12 13 13 13 12 11 10 8 7 7 6 6 7 8 9 10 11
5 5 6 7 6 6 6 7 8 9 10 10 11 11 12 12 11 11 10 9 8 6 7 10 12 13 13 14 13 9 7 7 6 5 5 5 4 3 3 3 4 4 4 5 6 9 13 12 10 10 10 9 8 7 6 6 6 7 8 9 9 11 12
6 6 6 7 7 6 6 7 9 10 10 10 11 11 11 11 11 10 9 9 8 7 6 8 10 11 12 13 13 10 7 6 7 6 6 7 6 6 5 5 6 6 4 4 6 10 13 11 7 8 8 7 6 5 4 4 4 4 5 7 8 9 11
7 7 7 6 6 6 6 7 9 11 10 10 11 12 11 11 11 11 11 11 10 8 7 7 8 9 10 11 13 11 8 7 7 7 7 8 8 8 7 7 7 6 5 6 8 10 13 11 7 6 5 4 4 4 3 3 4 4 4 6 7 8 9
8 8 9 8 8 7 8 8 9 11 11 11 12 13 13 12 12 12 12 11 11 10 9 9 8 9 10 10 12 13 9 7 8 8 8 8 8 8 9 8 8 7 6 7 8 9 10 9 6 5 3 3 4 4 2 2 5 7 6 7 8 9 9
9 9 9 9 9 10 10 11 11 12 12 12 12 12 12 12 12 12 11 10 10 10 10 10 9 10 10 10 12 13 10 8 9 9 8 8 8 9 9 10 10 9 8 8 8 7 6 6 5 4 3 3 4 4 3 2 4 6 6 7 8 9 9
10 10 10 10 11 12 12 13 13 14 14 13 13 13 14 13 12 11 11 10 10 12 12 11 10 11 11 11 13 14 13 12 12 10 8 9 9 10 11 12 12 11 9 8 7 6 5 4 4 3 3 3 3 3 2 2 4 5 6 7 8 9 9
12 11 11 10 11 12 13 15 16 17 16 17 16 15 15 15 14 13 12 12 12 12 13 12 12 12 12 12 13 14 14 14 14 10 8 8 10 11 12 14 14 12 10 8 7 6 4 3 2 2 1 1 3 3 1 3 4 5 6 7 8 8 9